FORMOSAT-5

Last updated on Sat Jun 14 2025 00:02:29 GMT+0000 (Coordinated Universal Time)

1 42920U 17049A 25164.57610605 .00000282 00000+0 82655-4 0 9997 2 42920 98.2591 242.3526 0012109 127.6365 232.5930 14.50880922413225
UTC large
Height (km)
Speed (km/s)
/
Latitude / Longitude
Inclination (degrees)
Orbital Period (minutes)
Azimuth
Elevation
Range (km)
Doppler Factor

Next 0 passes for location: London (51.5072 / 0.1276)

Sorry there are no passes over London.